Home   Weather   Reykjavik   Past weeks
Flag for Iceland

Past Weather in Reykjavik, Iceland — Yesterday and Last 2 Weeks

Now
59 °F

Broken clouds.


Feels Like: 58 °F
Forecast: N/A
Wind: 6 mph from South

Location: Reykjavik Airport

Current Time: Jul 23, 2019 at 8:59:38 pm

Latest Report: Jul 23, 2019 at 8:00 pm


Visibility: N/A

Pressure: 29.74 "Hg

Humidity: 77%

Dew Point: 52 °F

Location of ReykjavikLocation

Past Weather in Reykjavik — Graph

°F

Reykjavik Temperature Yesterday

Maximum temperature yesterday: 61 °F (at 12:00 pm)
Minimum temperature yesterday: 55 °F (at 2:00 am)
Average temperature yesterday: 58 °F

High & Low Weather Summary for the Past Weeks

 TemperatureHumidityPressure
High68 °F (Jul 20, 6:00 pm)94% (Jul 12, 3:00 am)30.09 "Hg (Jul 12, 3:00 am)
Low50 °F (Jul 9, 5:00 am)43% (Jul 20, 6:00 pm)29.53 "Hg (Jul 18, 5:00 pm)
Average56 °F76%29.79 "Hg
* Reported Jul 8 7:00 pm — Jul 23 7:00 pm, Reykjavik. Weather by CustomWeather, © 2019

Note: Actual official high and low records may vary slightly from our data, if they occured in-between our weather recording intervals... More about our weather records

Advertising

Reykjavik Weather History for the Previous 24 Hours

Scroll right to see more
 ConditionsComfort  
Time TempWeatherWind HumidityBarometerVisibility
7:00 pm
Tue, Jul 23
61 °FPassing clouds.6 mph68%29.74 "HgN/A
6:00 pm59 °FPassing clouds.6 mph72%29.74 "HgN/A
5:00 pm59 °FPartly sunny.8 mph72%29.74 "HgN/A
4:00 pm57 °FPassing clouds.9 mph77%29.77 "HgN/A
3:00 pm57 °FPassing clouds.9 mph72%29.77 "HgN/A
2:00 pm57 °FPassing clouds.9 mph77%29.77 "HgN/A
1:00 pm55 °FPassing clouds.9 mph77%29.77 "HgN/A
12:00 pm55 °FBroken clouds.8 mph82%29.77 "HgN/A
11:00 am55 °FPartly sunny.6 mph82%29.77 "HgN/A
10:00 am54 °FLow clouds.6 mph88%29.77 "HgN/A
9:00 am54 °FMostly cloudy.5 mph88%29.77 "HgN/A
8:00 am54 °FBroken clouds.9 mph88%29.74 "HgN/A
7:00 am54 °FBroken clouds.6 mph88%29.74 "HgN/A
6:00 am54 °FBroken clouds.5 mph88%29.74 "HgN/A
5:00 am54 °FBroken clouds.2 mph88%29.74 "HgN/A
4:00 am54 °FPartly cloudy.2 mph88%29.71 "HgN/A
3:00 am54 °FPassing clouds.6 mph88%29.71 "HgN/A
2:00 am55 °FPassing clouds.7 mph82%29.71 "HgN/A
1:00 am54 °FPassing clouds.2 mph82%29.71 "HgN/A
12:00 am55 °FPartly cloudy.5 mph82%29.71 "HgN/A
11:00 pm
Mon, Jul 22
55 °FBroken clouds.5 mph77%29.71 "HgN/A
10:00 pm57 °FBroken clouds.No wind72%29.68 "HgN/A
9:00 pm57 °FSprinkles. Broken clouds.3 mph77%29.68 "HgN/A
8:00 pm57 °FLight rain. Broken clouds.5 mph72%29.68 "HgN/A
Weather by CustomWeather, © 2019

See weather overview